{"data":{"norad_id":61544,"epoch":"2026-09-21T12:36:44.226432Z","epoch_age_seconds":103436,"freshness":"FRESH","line1":"1 61544U 24184N   26264.52551188 -.00000409  00000+0  14898-5 0  9992","line2":"2 61544  53.1591 351.0027 0001359  89.9758 270.1416 15.69695619111177","mean_motion":15.69695619,"eccentricity":0.0001359,"inclination_deg":53.1591,"raan_deg":351.0027,"arg_perigee_deg":89.9758,"mean_anomaly_deg":270.1416,"bstar":1.4898e-6,"rev_number":11117,"period_min":91.737530676003,"perigee_km":358.85222237481,"apogee_km":360.68358492762,"semimajor_km":6737.9049036512,"source":"CELESTRAK","updated_at":"2026-09-22T09:00:49.366704Z"}}